Flag for U.S.A. Weather past 2 weeks in Lafayette, Louisiana, U.S.A.

Now
86 °F

Sunny.


Feels Like: 95 °F
Forecast: 75 / 91 °F
Wind: 5 mph from Southwest

Location: Lafayette Regional Airport

Current Time: Jul 2, 2015 at 2:08:55 PM

Latest Report: Jul 2, 2015 at 12:53 PM


Visibility: 10 mi

Pressure: 30.07 "Hg

Humidity: 70%

Dew point: 75 °F

Location of LafayetteLocation

Historic Weather in Lafayette — Graph

°F

Lafayette temperature yesterday

Maximum temperature yesterday: 88 °F (at 11:53 AM)
Minimum temperature yesterday: 73 °F (at 2:53 AM)
Average temperature yesterday: 78 °F

Past Weeks' High & Low Weather Summary

 TemperatureHumidityPressure
High94 °F (Jun 23, 2:53 PM)97% (Jun 27, 10:53 PM)30.17 "Hg (Jun 27, 10:53 PM)
Low72 °F (Jun 28, 6:00 AM)49% (Jun 23, 2:53 PM)29.93 "Hg (Jun 27, 5:53 PM)
Average81 °F78%30.06 "Hg
* Reported Jun 17 12:53 PM — Jul 2 12:53 PM, Lafayette, Weather by CustomWeather, © 2015

Note: Actual official high and low records may vary slightly from our data, if they occured in-between our weather recording intervals... More about our weather records

Advertising

Lafayette weather history for previous 24 hours

 ConditionsComfort  
Time TempWeatherWind HumidityBarometerVisibility
12:53 PM
Thu, Jul 2
86 °FSunny.5 mph70%30.07 "Hg10 mi
11:53 AM85 °FSunny.9 mph75%30.09 "Hg10 mi
10:53 AM84 °FSunny.7 mph77%30.09 "Hg10 mi
9:53 AM83 °FPartly sunny.9 mph79%30.09 "Hg10 mi
8:53 AM80 °FSunny.No wind85%30.08 "Hg6 mi
7:53 AM78 °FScattered clouds.3 mph87%30.07 "Hg10 mi
6:53 AM76 °FLight rain. Passing clouds.5 mph88%30.06 "Hg10 mi
5:53 AM75 °FClear.No wind90%30.05 "Hg10 mi
4:53 AM75 °FPassing clouds.No wind90%30.04 "Hg10 mi
3:53 AM75 °FPassing clouds.3 mph88%30.03 "Hg10 mi
2:53 AM74 °FPassing clouds.No wind91%30.04 "Hg10 mi
1:53 AM73 °FClear.6 mph90%30.03 "Hg10 mi
12:53 AM72 °FPassing clouds.No wind93%30.05 "Hg10 mi
11:53 PM
Wed, Jul 1
73 °FPassing clouds.No wind88%30.09 "Hg10 mi
10:53 PM73 °FPassing clouds.No wind88%30.10 "Hg10 mi
9:53 PM75 °FPartly cloudy.22 mph88%30.11 "Hg10 mi
8:53 PM80 °FSunny.No wind94%30.06 "Hg9 mi
7:53 PM81 °FSunny.No wind91%30.05 "Hg10 mi
6:53 PM81 °FSunny.No wind91%30.06 "Hg10 mi
5:53 PM80 °FScattered clouds.3 mph90%30.06 "Hg10 mi
4:53 PM78 °FLight rain. Cloudy.No wind87%30.06 "Hg10 mi
4:02 PM79 °FThunderstorms. Mostly cloudy.9 mph77%30.06 "Hg10 mi
3:53 PM79 °FPartly sunny.18 mph79%30.06 "Hg10 mi
3:03 PM82 °FPartly sunny.No wind82%30.06 "Hg10 mi
2:53 PM82 °FThundershowers. Partly sunny.No wind82%30.06 "Hg10 mi
Weather by CustomWeather, © 2015

See weather overviewHow to use our weather pages